User: anonymous   Login
Location: Unspecified
(0.0000°N, 0.0000°E)
Time: 10:14:21
(UTC+00:00)
Language:

Gonets-D1 - Orbit

View from above orbital plane
View from above orbital plane
View from above satellite
View from above satellite

Ground track
Ground track

The orbit data is extracted from the following two-line orbital elements,

1 23789U 96009C   17080.88013381 +.00000058 +00000-0 +26234-3 0  9994
2 23789 082.5804 314.0693 0005001 137.8476 222.2998 12.62592428971862
Epoch (UTC): 21 March 2017 21:07:23
Eccentricity: 0.0005001
inclination: 82.5804°
perigee height: 1408 km
apogee height: 1416 km
right ascension of ascending node: 314.0693°
argument of perigee: 137.8476°
revolutions per day: 12.62592428
mean anomaly at epoch: 222.2998°
orbit number at epoch: 97186

The dashed part of the orbit path shows where the satellite is in the earth's shadow,  

DLR